Regional Weather Roundup
Issued by NWS Sioux Falls, SD

Home | Current Version | Previous Version | Text Only | Print | Product List | Glossary On
Versions: 1 2 3 4 5 6 7 8 9 10 11 12 13 14 15 16 17 18 19 20 21 22 23 24 25 26 27 28 29 30 31 32 33 34 35 36 37 38 39 40 41 42 43 44 45 46 47 48 49 50
000
ASUS43 KFSD 240610
RWRFSD

WEATHER ROUNDUP FOR SE SOUTH DAKOTA/SW MINNESOTA/NW IOWA
NATIONAL WEATHER SERVICE SIOUX FALLS SD
100 AM CDT SUN MAY 24 2015

NOTE: "FAIR" INDICATES FEW OR NO CLOUDS BELOW 12,000 FEET WITH NO
SIGNIFICANT WEATHER AND OR OBSTRUCTIONS TO VISIBILITY.


SDZ038>040-050-052>070-240700-
SOUTHEAST SOUTH DAKOTA

CITY           SKY/WX    TMP DP  RH WIND       PRES   REMARKS
BROOKINGS      CLOUDY    59  52  77 SE6       30.07S
CHAMBERLAIN    CLOUDY    55  55  97 E5        30.05S
6HR MIN TEMP:  55; 6HR MAX TEMP:  59; 6HR PCP:  0.04;

HURON          MOCLDY    55  52  89 E3        30.05S
6HR MIN TEMP:  55; 6HR MAX TEMP:  64;

MADISON        CLOUDY    57  57 100 SE6       30.05F
MITCHELL       LGT RAIN  58  56  93 CALM      30.06R
6HR MIN TEMP:  57; 6HR MAX TEMP:  64; 6HR PCP: TRACE;

SIOUX FALLS    LGT RAIN  59  56  89 S5        30.06F
6HR MIN TEMP:  59; 6HR MAX TEMP:  65; 6HR PCP:  0.07;

WINNER         LGT RAIN  57  54  89 SE9       30.03F
YANKTON        CLOUDY    57  55  94 E6        30.04S
$$

MNZ071-072-080-081-089-090-097-098-240700-
SOUTHWEST MINNESOTA

CITY           SKY/WX    TMP DP  RH WIND       PRES   REMARKS
FAIRMONT       CLOUDY    63  48  59 E8        30.09S
JACKSON        CLOUDY    63  54  72 E7        30.09F
LUVERNE        DRIZZLE   63  54  72 E3        30.07F
MARSHALL       CLOUDY    61  48  63 E7        30.06F
6HR MIN TEMP:  61; 6HR MAX TEMP:  66;

MONTEVIDEO     CLOUDY    59  50  72 SE8       30.09F
REDWOOD FALLS  CLOUDY    62  49  62 E7        30.08F
TRACY          CLOUDY    61  51  69 SE6       30.08S
WINDOM         CLOUDY    61  52  72 CALM      30.09S
WORTHINGTON    CLOUDY    61  50  67 CALM      30.09R
$$

IAZ001>003-012>014-020>022-031-032-NEZ013-014-SDZ071-240700-
NORTHWEST IOWA

CITY           SKY/WX    TMP DP  RH WIND       PRES   REMARKS
CHEROKEE       LGT RAIN  60  58  93 CALM      30.06R
DENISON        CLOUDY    61  61 100 E8        30.02S
ESTHERVILLE    CLOUDY    61  54  77 E7        30.08S
LE MARS        RAIN      59  59 100 CALM      30.06F
ORANGE CITY    RAIN      59  55  88 CALM      30.06S
SHELDON        CLOUDY    61  55  82 NE6       30.05S
SIOUX CITY     RAIN      61  58  90 E8        30.04S FOG
6HR MIN TEMP:  60; 6HR MAX TEMP:  64; 6HR PCP:  0.11;

SPENCER        CLOUDY    63  57  81 E6        30.07S
6HR MIN TEMP:  61; 6HR MAX TEMP:  69;

STORM LAKE     CLOUDY    63  57  82 E8        30.06F
$$

ABBREVIATIONS USED IN REMARKS
   TC - TEMPERATURE IN CELSIUS
  WCI - WIND CHILL INDEX
   HX - HEAT INDEX
  VSB - VISIBILITY




USA.gov is the U.S. government's official web portal to all federal, state and local government web resources and services.